Showing default

COSMOS 256, 3576

Orbit data source: Space-Track

COSMOS 256, 3576 is a payload satellite owned by OKB-10 (CIS) in LEO that was launched on Sat, 30 Nov 1968 UTC via a KOSMOS 11K65M launch vehicle from the Plesetsk Missile And Space Complex (PKMTR). Payload-class satellites include a variety of spacecraft equipped with specific instruments for various scientific and technological missions. These include communications satellites like Starlink; space stations such as the ISS; scientific satellites like the Hubble; Earth observation satellites from companies like Planet Labs, Umbra, and HawkEye 360; GPS; miniature CubeSats for education and research; and military/defense satellites.

Loading next visibility...
Identifier
3576, 1968-106A
Orbit
LEO
Country
Flag of CISCIS
Related business
Manufacturer
OKB-10
Mission
Spacecraft
Bus & Motor
KAUR-1 11F621, Unknown motor
Mass
800 kg wet, 800 kg dry
Launch date (UTC)
1968-11-30 (57 years ago)
Launch vehicle
KOSMOS 11K65M
Launch site
Plesetsk Missile And Space Complex (PKMTR)
Object type
Payload
Rocket body
Debris
Shape & HBR
Unknown
Radar Cross Section
Large (>1 m²)

Expand to show TLE details & history
Last TLE update: 12 hours ago

TLE from 12 hours ago
0 COSMOS 256
1 03576U 68106A   25340.59418021  .00000303  00000-0  83476-3 0  9993
2 03576  74.0505  19.8854 0032788  60.4118  52.9915 13.16875965740347
Epoch: 2025-12-06T14:15Z
TLE epoch observation values (Epoch: 2025-12-06T14:15:37.170Z)
Latitude
61.78693°
Longitude
-121.64507°
Altitude
1,191.988 km
Speed
7.271 km/s
True Right ascension
11h 11m 31s
True Declination
61° 39' 06"
Sunlit
Object was in daylight at epoch
Visualization orbit readout
Latitude
Unknown
Longitude
Unknown
Altitude
Unknown
Speed
Unknown
Apparent Right ascension
Unknown
Apparent Declination
Unknown
Sunlit
N/A
Visualization observer readout
Local Sidereal Time
00:13:26
Azimuth
Unknown
Elevation
Unknown
Doppler factor
Unknown
Orbital elements
Apogee altitude
1,219.262 km
Perigee altitude
1,169.604 km
Semi-major axis
7,572.57 km
Eccentricity
0.00328
Inclination
74.0505°
RAAN
19.8854°
Arg. of periapsis
60.4118°
True anomaly
53.29227°
Mean anomaly
52.9915°
Eccentric anomaly
53.14181°
Mean motion
3.29366 °/min
Orbital period
109.3 mins
BSTAR
0.00083476
Loading maneuver chart data...
Computing Atmospheric mass density...
Loading historical data...
Loading historical data...
Loading historical data...
Loading historical data...
Loading historical data...
Loading historical data...
Loading historical data...
Other satellites on launch #106 in the year 1968 (1968-11-30 UTC)

Documentation

Showing up to 5 results
|